Weather reports worldwide

Advertisment
Trawscoed, United Kingdom (3503): temperature & dewpoint: 13.02.2018 14:00:00 - 19.02.2018 14:00:00 (GMT)Trawscoed, United Kingdom (3503): temperature -20cm & temperature -100cm: 13.02.2018 14:00:00 - 19.02.2018 14:00:00 (GMT)Trawscoed, United Kingdom (3503): wind speed & gusts: 13.02.2018 14:00:00 - 19.02.2018 14:00:00 (GMT)Trawscoed, United Kingdom (3503): wind direction: 13.02.2018 14:00:00 - 19.02.2018 14:00:00 (GMT)Trawscoed, United Kingdom (3503): reduced air pressure: 13.02.2018 14:00:00 - 19.02.2018 14:00:00 (GMT)Trawscoed, United Kingdom (3503): visibility: 13.02.2018 14:00:00 - 19.02.2018 14:00:00 (GMT)Trawscoed, United Kingdom (3503): precipitation: 13.02.2018 14:00:00 - 19.02.2018 14:00:00 (GMT)
Date & Time tt [°C] td [°C] tt -20cm [°C] tt -100cm [°C] ff [km/h] ff [kn] fx [km/h] fx [kn] dd ppp [hPa] vv [km] rr [mm]
19.02.2018 14:00:00 - - - - - - - - - - - 0,0
19.02.2018 13:00:00 9,2 8,6 - - 8 4 - - WNW 1019,4 7 0,0
19.02.2018 12:00:00 9,1 8,5 - - 9 5 - - W 1019,4 7 0,0
19.02.2018 11:00:00 9,2 8,6 - - 8 4 - - WNW 1019,2 8 0,0
19.02.2018 10:00:00 9,1 8,8 - - 8 4 - - WNW 1019,0 6 0,0
19.02.2018 09:00:00 8,9 8,7 6,4 6,7 4 2 - - NW 1018,7 5 0,0
19.02.2018 08:00:00 8,9 8,6 - - 5 3 - - NW 1018,6 4,3 0,0
19.02.2018 07:00:00 8,8 8,5 - - 0 0 - - N 1018,3 4,0 0,0
19.02.2018 06:00:00 8,8 8,6 - - 2 1 - - S 1017,9 4,1 0,0
19.02.2018 05:00:00 8,7 8,4 - - 0 0 - - N 1017,6 0,5 0,0
19.02.2018 04:00:00 9,0 8,7 - - 5 3 - - WNW 1017,8 2,4 0,0
19.02.2018 03:00:00 9,5 9,2 - - 4 2 - - NNW 1017,8 5 0,2
19.02.2018 02:00:00 9,5 9,2 - - 8 4 - - NW 1018,1 5 0,2
19.02.2018 01:00:00 9,2 9,0 - - 4 2 - - SSW 1018,3 9 0,2
19.02.2018 00:00:00 8,2 7,8 - - 2 1 - - SSW 1018,6 11 0,6
18.02.2018 23:00:00 8,2 7,7 - - 5 3 - - SSE 1018,5 5 2,0
18.02.2018 22:00:00 8,3 7,7 - - 5 3 - - SSE 1018,7 3,9 2,2
18.02.2018 21:00:00 8,5 7,7 - - 8 4 - - SE 1018,6 8 0,6
18.02.2018 20:00:00 8,6 7,7 - - 5 3 - - SE 1018,8 5 0,4
18.02.2018 19:00:00 8,8 7,8 - - 5 3 - - S 1018,8 9 0,2
18.02.2018 18:00:00 9,0 7,7 - - 5 3 - - S 1018,8 17 0,2
18.02.2018 17:00:00 9,5 7,7 - - 8 4 - - S 1018,7 35 0,0
18.02.2018 16:00:00 10,2 7,4 - - 9 5 - - S 1018,7 40 0,0
18.02.2018 15:00:00 10,6 7,1 - - 11 6 - - S 1018,6 45 0,0
18.02.2018 14:00:00 11,0 7,1 - - 9 5 - - S 1018,6 50 0,0
18.02.2018 13:00:00 11,0 7,1 - - 13 7 - - SSE 1018,7 50 0,0
18.02.2018 12:00:00 10,6 6,7 - - 11 6 - - SSE 1018,6 45 0,0
18.02.2018 11:00:00 10,6 6,9 - - 15 8 - - SE 1018,7 40 0,0
18.02.2018 10:00:00 9,1 6,0 - - 5 3 - - SSE 1018,4 50 0,0
18.02.2018 09:00:00 7,9 5,2 5,7 6,7 4 2 - - SSE 1018,6 50 0,0
18.02.2018 08:00:00 7,5 4,8 - - 5 3 - - SSE 1018,7 50 0,0
18.02.2018 07:00:00 7,1 4,5 - - 9 5 - - SE 1018,7 50 0,0
18.02.2018 06:00:00 7,1 4,4 - - 8 4 - - SE 1018,5 50 0,0
18.02.2018 05:00:00 7,0 4,4 - - 11 6 - - SE 1018,9 50 0,0
18.02.2018 04:00:00 5,7 3,6 - - 5 3 - - S 1018,6 40 0,0
18.02.2018 03:00:00 5,0 2,7 - - 4 2 - - SSE 1019,4 50 0,0
18.02.2018 02:00:00 6,9 3,9 - - 8 4 - - SSE 1019,8 40 0,0
18.02.2018 01:00:00 7,0 4,6 - - 9 5 - - SE 1019,9 35 0,0
18.02.2018 00:00:00 5,9 4,7 - - 2 1 - - NW 1020,2 26 0,0
17.02.2018 23:00:00 5,6 4,7 - - 2 1 - - W 1020,4 30 0,0
17.02.2018 22:00:00 6,0 4,9 - - 4 2 - - SSE 1020,4 16 0,0
17.02.2018 21:00:00 3,7 3,0 - - 4 2 - - N 1020,4 19 0,0
17.02.2018 20:00:00 5,4 3,9 - - 2 1 - - S 1020,6 26 0,0
17.02.2018 19:00:00 5,7 4,0 - - 2 1 - - S 1020,8 40 0,0
17.02.2018 18:00:00 6,9 4,3 - - 5 3 - - S 1020,5 50 0,0
17.02.2018 17:00:00 6,9 4,8 - - 2 1 - - WSW 1020,4 50 0,0
17.02.2018 16:00:00 8,6 4,1 - - 5 3 - - SW 1020,2 30 0,0
17.02.2018 15:00:00 10,2 4,0 - - 15 8 - - W 1020,1 26 0,0
17.02.2018 14:00:00 8,8 4,3 - - 9 5 - - W 1020,5 35 0,0
17.02.2018 13:00:00 8,6 3,6 - - 9 5 - - WSW 1020,7 40 0,0
17.02.2018 12:00:00 9,5 5,1 - - 8 4 - - W 1020,8 45 0,0
17.02.2018 11:00:00 8,6 4,3 - - 11 6 - - WSW 1020,6 35 0,0
17.02.2018 10:00:00 7,4 5,2 - - 9 5 - - SW 1020,3 40 0,0
17.02.2018 09:00:00 5,7 4,7 5,2 6,7 8 4 - - S 1019,8 20 0,0
17.02.2018 08:00:00 5,2 4,2 - - 8 4 - - S 1019,4 11 0,4
17.02.2018 07:00:00 5,3 3,8 - - 11 6 - - S 1018,9 9 0,0
17.02.2018 06:00:00 5,9 3,0 - - 16 9 - - S 1018,5 8 0,2
17.02.2018 05:00:00 6,1 2,5 - - 16 9 - - SSE 1018,3 30 0,0
17.02.2018 04:00:00 5,9 1,6 - - 15 8 - - SSE 1018,5 35 0,0
17.02.2018 03:00:00 5,7 1,7 - - 9 5 - - SSE 1019,0 15 0,0
17.02.2018 02:00:00 6,0 1,0 - - 15 8 - - SSE 1019,4 30 0,0
17.02.2018 01:00:00 6,0 0,3 - - 16 9 - - SSE 1019,2 45 0,0
17.02.2018 00:00:00 5,7 1,2 - - 9 5 - - SSE 1019,3 45 0,0
16.02.2018 23:00:00 6,1 1,5 - - 11 6 - - SSE 1019,5 35 0,0
16.02.2018 22:00:00 6,4 2,2 - - 18 10 - - SSE 1019,8 30 0,0
16.02.2018 21:00:00 5,9 2,3 - - 9 5 - - SSE 1020,1 45 0,0
16.02.2018 20:00:00 4,9 1,6 - - 4 2 - - S 1020,3 40 0,0
16.02.2018 19:00:00 5,9 1,3 - - 8 4 - - SSE 1020,5 45 0,0
16.02.2018 18:00:00 6,2 1,6 - - 8 4 - - SE 1020,7 40 0,0
16.02.2018 17:00:00 7,1 1,1 - - 11 6 - - SSE 1020,9 50 0,0
16.02.2018 16:00:00 7,8 1,0 - - 15 8 - - S 1021,1 50 0,0
16.02.2018 15:00:00 8,9 3,3 - - 16 9 - - S 1021,5 24 0,0
16.02.2018 14:00:00 9,0 3,5 - - 13 7 - - S 1022,3 30 0,0
16.02.2018 13:00:00 8,5 3,5 - - 15 8 - - S 1022,8 45 0,0
16.02.2018 12:00:00 8,3 3,1 - - 16 9 - - S 1023,2 35 0,0
16.02.2018 11:00:00 7,1 3,7 - - 11 6 - - SSE 1023,4 30 0,6
16.02.2018 10:00:00 4,2 1,8 - - 5 3 - - S 1023,8 26 0,0
16.02.2018 09:00:00 2,8 0,9 5,2 6,7 4 2 - - SSE 1023,5 28 0,0
16.02.2018 08:00:00 1,3 0,3 - - 5 3 - - S 1023,3 24 0,0
16.02.2018 07:00:00 1,2 0,0 - - 4 2 - - S 1023,0 20 0,0
16.02.2018 06:00:00 -0,4 -1,4 - - 2 1 - - SSE 1022,6 19 0,0
16.02.2018 05:00:00 0,0 -1,4 - - 4 2 - - SSE 1022,0 21 0,0
16.02.2018 04:00:00 0,9 -0,6 - - 4 2 - - E 1021,3 21 0,0
16.02.2018 03:00:00 0,8 -1,0 - - 4 2 - - SSE 1021,1 23 0,0
16.02.2018 02:00:00 2,6 0,1 - - 5 3 - - SSE 1020,4 21 0,0
16.02.2018 01:00:00 4,2 -0,5 - - 4 2 - - WSW 1019,6 22 0,0
16.02.2018 00:00:00 4,5 0,6 - - 8 4 - - WSW 1019,0 23 0,0
15.02.2018 23:00:00 3,6 0,3 - - 5 3 - - SSW 1018,4 23 0,2
15.02.2018 22:00:00 3,2 -0,2 - - 8 4 - - SSW 1017,8 22 0,0
15.02.2018 21:00:00 2,8 0,6 - - 9 5 - - S 1016,6 21 0,0
15.02.2018 20:00:00 3,8 1,1 - - 11 6 - - SSW 1016,0 23 0,0
15.02.2018 19:00:00 3,8 1,7 - - 9 5 - - SSW 1015,3 30 0,2
15.02.2018 18:00:00 3,6 1,2 - - 8 4 - - SSW 1014,2 35 0,0
15.02.2018 17:00:00 4,1 0,7 - - 11 6 - - SW 1013,5 40 2,2
15.02.2018 16:00:00 6,3 1,4 - - 16 9 - - WSW 1012,4 11 0,0
15.02.2018 15:00:00 7,2 0,4 - - 21 11 55 30 WSW 1011,6 17 0,0
15.02.2018 14:00:00 7,6 1,6 - - 15 8 55 30 WSW 1011,1 14 0,0
15.02.2018 13:00:00 7,5 -0,5 - - 18 10 50 27 W 1010,7 22 0,0
15.02.2018 12:00:00 7,6 -0,8 - - 21 11 - - W 1009,9 15 0,0
15.02.2018 11:00:00 7,7 -0,4 - - 18 10 - - W 1008,9 23 0,0
15.02.2018 10:00:00 6,7 -0,1 - - 13 7 - - WSW 1008,0 26 0,0
15.02.2018 09:00:00 5,6 -0,7 5,2 6,7 16 9 - - W 1007,0 16 0,0
15.02.2018 08:00:00 5,7 1,1 - - 13 7 - - WSW 1005,4 16 0,0
15.02.2018 07:00:00 5,1 1,8 - - 9 5 - - SW 1004,2 17 0,0
15.02.2018 06:00:00 5,5 2,7 - - 9 5 - - SW 1003,2 20 0,0
15.02.2018 05:00:00 6,0 3,5 - - 11 6 - - WSW 1001,9 23 0,0
15.02.2018 04:00:00 6,7 4,1 - - 11 6 - - WSW 1000,6 30 0,2
15.02.2018 03:00:00 7,4 4,6 - - 11 6 - - SW 999,5 30 0,0
15.02.2018 02:00:00 8,1 4,1 - - 21 11 - - SW 998,6 35 0,0
15.02.2018 01:00:00 7,6 6,0 - - 11 6 - - S 997,9 9 0,0
15.02.2018 00:00:00 7,5 5,8 - - 13 7 - - S 998,1 9 0,0
14.02.2018 23:00:00 6,6 5,4 - - 8 4 - - S 997,9 8 0,0
14.02.2018 22:00:00 7,4 6,1 - - 11 6 - - S 997,2 9 0,0
14.02.2018 21:00:00 7,9 6,7 - - 8 4 - - S 996,7 9 0,0
14.02.2018 20:00:00 8,1 7,0 - - 8 4 - - S 996,3 10 0,0
14.02.2018 19:00:00 7,9 7,1 - - 5 3 - - S 995,8 16 0,0
14.02.2018 18:00:00 8,5 7,6 - - 8 4 - - S 995,2 50 0,4
14.02.2018 17:00:00 8,3 7,4 - - 16 9 - - S 994,7 11 0,6
14.02.2018 16:00:00 8,7 6,8 - - 22 12 - - S 994,1 7 0,4
14.02.2018 15:00:00 8,7 6,1 - - 21 11 55 30 S 994,0 45 0,0
14.02.2018 14:00:00 8,1 5,1 - - 35 19 59 32 S 993,9 50 0,0
14.02.2018 13:00:00 7,5 4,4 - - 35 19 61 33 SSE 994,5 45 0,0
14.02.2018 12:00:00 6,9 3,3 - - 37 20 70 38 SSE 994,9 50 0,0
14.02.2018 11:00:00 5,6 2,1 - - 39 21 61 33 SSE 995,1 50 0,0
14.02.2018 10:00:00 5,1 1,5 - - 35 19 63 34 SSE 996,2 50 -
14.02.2018 09:00:00 4,3 1,2 5,0 6,7 39 21 68 37 SSE 996,6 35 0,2
14.02.2018 08:00:00 4,9 -0,1 - - 35 19 63 34 SSE 997,7 40 0,0
14.02.2018 07:00:00 4,4 -0,8 - - 34 18 54 29 SSE 998,5 50 0,0
14.02.2018 06:00:00 3,5 -1,8 - - 18 10 - - SE 999,9 50 0,0
14.02.2018 05:00:00 3,3 -2,0 - - 24 13 46 25 SSE 1001,0 50 0,0
14.02.2018 04:00:00 2,6 -1,6 - - 9 5 - - SE 1002,3 45 0,0
14.02.2018 03:00:00 2,5 -1,7 - - 15 8 - - SE 1003,6 50 0,0
14.02.2018 02:00:00 2,1 -1,9 - - 21 11 - - SSE 1004,4 50 0,0
14.02.2018 01:00:00 -0,8 -2,2 - - 4 2 - - WNW 1005,7 40 0,0
14.02.2018 00:00:00 -1,5 -2,7 - - 0 0 - - N 1005,9 35 0,0
13.02.2018 23:00:00 -1,5 -2,6 - - 8 4 - - SSE 1006,1 29 0,0
13.02.2018 22:00:00 -1,7 -2,7 - - 2 1 - - SSE 1006,6 21 0,0
13.02.2018 21:00:00 -2,1 -3,0 - - 2 1 - - N 1006,9 19 0,0
13.02.2018 20:00:00 -0,5 -1,4 - - 2 1 - - E 1006,3 19 0,0
13.02.2018 19:00:00 0,7 -1,0 - - 5 3 - - SE 1006,1 22 0,0
13.02.2018 18:00:00 2,1 -1,0 - - 2 1 - - SSE 1005,2 27 0,0
13.02.2018 17:00:00 4,3 -1,3 - - 9 5 - - NW 1004,0 29 0,0
13.02.2018 16:00:00 5,6 -0,7 - - 21 11 - - NW 1003,0 22 0,0
13.02.2018 15:00:00 5,9 -0,7 - - 22 12 - - NW 1001,4 17 0,0
13.02.2018 14:00:00 6,3 0,9 - - 28 15 48 26 NW 1000,6 27 0,0

tt = temperature
td = dewpoint
tt -20cm = temperature -20cm
tt -100cm = temperature -100cm
ff = wind speed
fx = gusts
dd = wind direction
ppp = reduced air pressure
vv = visibility
rr = precipitation

Next stations